CW4588 Weather Reports


Display with metric or nautical units.
time (UTC)temp
F
wind
direction
speed
MPH
gust
MPH
rain 1hr
in
rain 24hr
in
rain mn
in
humidity
%
barometer
mb
20260903105028 69 293 0.0 0.0 0.00 0.00 0.00 56 997.5
20260903104548 70 211 1.0 0.0 0.00 0.00 0.00 58 997.5
20260903104047 70 290 1.0 0.0 0.00 0.00 0.00 55 997.6
20260903103531 70 329 1.0 0.0 0.00 0.00 0.00 57 997.6
20260903103028 70 266 2.0 0.0 0.00 0.00 0.00 57 997.6
20260903102531 69 232 1.0 0.0 0.00 0.00 0.00 58 997.6
20260903102037 68 226 1.0 0.0 0.00 0.00 0.00 59 997.6
20260903101556 67 359 0.0 0.0 0.00 0.00 0.00 62 997.6
20260903101032 65 264 0.0 0.0 0.00 0.00 0.00 65 997.7
20260903100551 65 181 1.0 0.0 0.00 0.00 0.00 64 997.7
20260903100035 65 194 1.0 0.0 0.00 0.00 0.00 66 997.7
20260903095521 65 171 0.0 0.0 0.00 0.00 0.00 66 997.7
20260903095033 66 197 0.0 0.0 0.00 0.00 0.00 64 997.7
20260903094553 66 214 1.0 0.0 0.00 0.00 0.00 64 997.7
20260903094039 67 215 1.0 0.0 0.00 0.00 0.00 62 997.7
20260903093526 68 298 1.0 0.0 0.00 0.00 0.00 61 997.7
20260903093039 68 236 1.0 0.0 0.00 0.00 0.00 65 997.7
20260903092526 68 233 1.0 0.0 0.00 0.00 0.00 63 997.7
20260903092046 68 204 1.0 0.0 0.00 0.00 0.00 64 997.7
20260903091539 68 257 1.0 0.0 0.00 0.00 0.00 65 997.7
20260903091023 68 267 1.0 0.0 0.00 0.00 0.00 66 997.8
20260903090529 68 273 1.0 0.0 0.00 0.00 0.00 65 997.8
20260903090110 68 167 1.0 0.0 0.00 0.00 0.00 67 997.8
20260903085532 67 113 0.0 0.0 0.00 0.00 0.00 65 997.8
20260903085100 67 260 0.0 0.0 0.00 0.00 0.00 66 997.8
20260903084556 67 256 1.0 0.0 0.00 0.00 0.00 68 997.8
20260903084032 66 293 1.0 0.0 0.00 0.00 0.00 69 997.8
20260903083547 66 171 1.0 0.0 0.00 0.00 0.00 69 997.8
20260903083028 66 144 2.0 0.0 0.00 0.00 0.00 68 997.8
20260903082608 66 273 2.0 0.0 0.00 0.00 0.00 68 997.8
20260903082033 66 232 1.0 0.0 0.00 0.00 0.00 69 997.8
20260903081535 66 134 1.0 0.0 0.00 0.00 0.00 72 997.8
20260903081046 65 173 1.0 0.0 0.00 0.00 0.00 71 997.9
20260903080554 65 195 1.0 0.0 0.00 0.00 0.00 74 997.9
20260903080046 64 311 1.0 0.0 0.00 0.00 0.00 76 997.9
20260903075529 63 334 1.0 0.0 0.00 0.00 0.00 77 997.9
20260903075035 62 166 1.0 0.0 0.00 0.00 0.00 80 997.9
20260903074548 61 173 2.0 0.0 0.00 0.00 0.00 81 997.9
20260903074052 61 208 1.0 0.0 0.00 0.00 0.00 82 997.8
20260903073533 61 112 1.0 0.0 0.00 0.00 0.00 84 997.8
20260903073030 61 129 1.0 0.0 0.00 0.00 0.00 84 997.8
20260903072528 61 156 1.0 0.0 0.00 0.00 0.00 84 997.8
20260903072031 61 294 1.0 0.0 0.00 0.00 0.00 85 997.8
20260903071537 60 194 1.0 0.0 0.00 0.00 0.00 87 997.8
20260903071036 59 232 1.0 0.0 0.00 0.00 0.00 88 997.8
20260903070522 59 235 1.0 0.0 0.00 0.00 0.00 89 997.8
20260903070032 59 160 0.0 0.0 0.00 0.00 0.00 90 997.8
20260903065530 59 206 1.0 0.0 0.00 0.00 0.00 90 997.9
20260903065047 58 230 1.0 0.0 0.00 0.00 0.00 91 997.9
20260903064522 58 137 1.0 0.0 0.00 0.00 0.00 93 997.9
20260903064026 58 180 1.0 0.0 0.00 0.00 0.00 94 998.0
20260903063541 58 180 0.0 0.0 0.00 0.00 0.00 95 998.0
20260903063022 57 214 0.0 0.0 0.00 0.00 0.00 96 998.0
20260903062523 57 222 0.0 0.0 0.00 0.00 0.00 96 997.9
20260903062036 57 164 0.0 0.0 0.00 0.00 0.00 97 997.9
20260903061552 57 314 0.0 0.0 0.00 0.00 0.00 97 997.9
20260903061055 57 85 0.0 0.0 0.00 0.00 0.00 98 998.0
20260903060535 56 253 1.0 0.0 0.00 0.00 0.00 98 998.0
20260903060030 56 195 1.0 0.0 0.00 0.00 0.00 99 998.0
20260903055529 56 180 0.0 0.0 0.00 0.00 0.00 100 997.9
20260903055100 56 127 0.0 0.0 0.00 0.00 0.00 100 997.9
20260903054528 56 182 0.0 0.0 0.00 0.00 0.00 100 997.9
20260903054031 56 174 0.0 0.0 0.00 0.00 0.00 100 997.9
20260903053540 56 218 0.0 0.0 0.00 0.00 0.00 100 997.9
20260903053025 56 191 0.0 0.0 0.00 0.00 0.00 100 997.9
20260903052554 56 263 0.0 0.0 0.00 0.00 0.00 100 997.9
20260903052048 56 352 0.0 0.0 0.00 0.00 0.00 100 997.9
20260903051606 56 157 1.0 0.0 0.00 0.00 0.00 100 997.9
20260903051026 55 284 1.0 0.0 0.00 0.00 0.00 100 998.0
20260903050557 55 151 1.0 0.0 0.00 0.00 0.00 100 998.0
20260903050030 55 118 2.0 0.0 0.00 0.00 0.00 100 998.0
20260903045531 55 157 1.0 0.0 0.00 0.00 0.00 100 998.0
20260903045030 55 120 1.0 0.0 0.00 0.00 0.00 100 998.0
20260903044543 55 120 1.0 0.0 0.00 0.00 0.00 100 998.0
20260903044023 54 225 1.0 0.0 0.00 0.00 0.00 100 998.0
20260903043529 54 201 1.0 0.0 0.00 0.00 0.00 100 998.0
20260903043040 54 149 0.0 0.0 0.00 0.00 0.00 100 998.0
20260903042520 54 249 1.0 0.0 0.00 0.00 0.00 100 998.1
20260903042027 54 157 1.0 0.0 0.00 0.00 0.00 100 998.1
20260903041545 54 195 1.0 0.0 0.00 0.00 0.00 100 998.1
20260903041034 54 166 0.0 0.0 0.00 0.00 0.00 100 998.2
20260903040550 54 233 1.0 0.0 0.00 0.00 0.00 100 998.2
20260903040034 53 238 1.0 0.0 0.00 0.00 0.00 100 998.1
20260903035520 53 232 1.0 0.0 0.00 0.00 0.00 100 998.2
20260903035036 53 178 0.0 0.0 0.00 0.00 0.00 100 998.2
20260903034522 53 156 0.0 0.0 0.00 0.00 0.00 100 998.2
20260903034023 53 225 1.0 0.0 0.00 0.00 0.00 100 998.2
20260903033537 53 157 1.0 0.0 0.00 0.00 0.00 100 998.2
20260903033024 53 262 1.0 0.0 0.00 0.00 0.00 100 998.2
20260903032547 53 226 0.0 0.0 0.00 0.00 0.00 100 998.3
20260903032034 52 127 0.0 0.0 0.00 0.00 0.00 100 998.3
20260903031545 52 202 0.0 0.0 0.00 0.00 0.00 100 998.3
20260903031027 52 192 0.0 0.0 0.00 0.00 0.00 100 998.2
20260903030534 52 247 1.0 0.0 0.00 0.00 0.00 100 998.2
20260903025531 52 113 0.0 0.0 0.00 0.00 0.00 100 998.2
20260903025038 53 161 0.0 0.0 0.00 0.00 0.00 100 998.2
20260903024522 53 173 0.0 0.0 0.00 0.00 0.00 100 998.2
20260903024036 53 132 0.0 0.0 0.00 0.00 0.00 100 998.3
20260903023523 53 218 0.0 0.0 0.00 0.00 0.00 100 998.3
20260903023102 53 211 0.0 0.0 0.00 0.00 0.00 100 998.3
20260903022540 53 180 1.0 0.0 0.00 0.00 0.00 100 998.4
20260903022027 53 208 1.0 0.0 0.00 0.00 0.00 100 998.4
20260903021543 53 211 0.0 0.0 0.00 0.00 0.00 100 998.4
20260903021044 53 168 0.0 0.0 0.00 0.00 0.00 100 998.5
20260903020545 53 78 0.0 0.0 0.00 0.00 0.00 99 998.5
20260903020038 53 215 0.0 0.0 0.00 0.00 0.00 99 998.5
20260903015521 53 223 0.0 0.0 0.00 0.00 0.00 99 998.5
20260903015024 53 222 0.0 0.0 0.00 0.00 0.00 99 998.5
20260903014535 53 142 0.0 0.0 0.00 0.00 0.00 99 998.5
20260903014038 53 167 0.0 0.0 0.00 0.00 0.00 99 998.6
20260903013520 53 160 0.0 0.0 0.00 0.00 0.00 99 998.6
20260903013035 53 157 0.0 0.0 0.00 0.00 0.00 99 998.6
20260903012532 53 157 0.0 0.0 0.00 0.00 0.00 99 998.7
20260903012034 53 158 0.0 0.0 0.00 0.00 0.00 99 998.7
20260903011551 54 168 0.0 0.0 0.00 0.00 0.00 99 998.7
20260903011031 54 195 0.0 0.0 0.00 0.00 0.00 99 998.8
20260903010536 54 163 0.0 0.0 0.00 0.00 0.00 99 998.8
20260903010057 54 170 0.0 0.0 0.00 0.00 0.00 99 998.8
20260903005535 54 223 0.0 0.0 0.00 0.00 0.00 99 999.0
20260903005047 54 184 0.0 0.0 0.00 0.00 0.00 99 999.0
20260903004528 54 160 0.0 0.0 0.00 0.00 0.00 99 999.0
20260903004034 54 223 1.0 0.0 0.00 0.00 0.00 99 999.0
20260903003522 54 209 1.0 0.0 0.00 0.00 0.00 99 999.0
20260903003034 54 260 1.0 0.0 0.00 0.00 0.00 99 999.0
20260903002600 54 209 0.0 0.0 0.00 0.00 0.00 99 999.2
20260903002057 54 235 0.0 0.0 0.00 0.00 0.00 99 999.2
20260903001552 54 178 0.0 0.0 0.00 0.00 0.00 99 999.2
20260903001029 54 153 0.0 0.0 0.00 0.00 0.00 99 999.2
20260903000535 54 115 0.0 0.0 0.00 0.00 0.00 99 999.2
20260903000100 54 226 1.0 0.0 0.00 0.00 0.00 99 999.2
20260902235524 54 222 1.0 0.0 0.00 0.00 0.00 99 999.3
20260902235021 54 154 1.0 0.0 0.00 0.00 0.00 99 999.3
20260902234532 54 154 0.0 0.0 0.00 0.00 0.00 98 999.3
20260902234036 54 136 0.0 0.0 0.00 0.00 0.00 98 999.3
20260902233519 54 202 0.0 0.0 0.00 0.00 0.00 98 999.3
20260902233032 54 202 0.0 0.0 0.00 0.00 0.00 98 999.3
20260902232559 53 232 0.0 0.0 0.00 0.00 0.00 98 999.5
20260902232036 53 192 0.0 0.0 0.00 0.00 0.00 97 999.5
20260902231521 53 216 0.0 0.0 0.00 0.00 0.00 97 999.5
20260902231025 53 157 0.0 0.0 0.00 0.00 0.00 97 999.6
20260902230529 53 164 0.0 0.0 0.00 0.00 0.00 96 999.6
20260902230045 53 204 0.0 0.0 0.00 0.00 0.00 96 999.6
20260902225530 53 132 0.0 0.0 0.00 0.00 0.00 96 999.7
20260902225059 53 250 0.0 0.0 0.00 0.00 0.00 96 999.7
20260902224529 53 170 1.0 0.0 0.00 0.00 0.00 96 999.7
20260902224029 53 188 1.0 0.0 0.00 0.00 0.00 96 999.8
20260902223530 53 175 1.0 0.0 0.00 0.00 0.00 95 999.8
20260902223028 53 158 1.0 0.0 0.00 0.00 0.00 95 999.8
20260902222554 53 137 1.0 0.0 0.00 0.00 0.00 94 999.9
20260902222053 53 137 0.0 0.0 0.00 0.00 0.00 94 999.9
20260902221520 53 137 0.0 0.0 0.00 0.00 0.00 94 999.9
20260902221055 53 153 0.0 0.0 0.00 0.00 0.00 94 1000.1
20260902220537 53 126 0.0 0.0 0.00 0.00 0.00 94 1000.1
20260902220027 53 118 0.0 0.0 0.00 0.00 0.00 93 1000.1
20260902215522 54 144 0.0 0.0 0.00 0.00 0.00 93 1000.1
20260902215028 54 99 0.0 0.0 0.00 0.00 0.00 93 1000.1
20260902214534 54 130 0.0 0.0 0.00 0.00 0.00 93 1000.1
20260902214028 54 149 0.0 0.0 0.00 0.00 0.00 93 1000.2
20260902213553 54 123 0.0 0.0 0.00 0.00 0.00 93 1000.2
20260902213045 54 170 0.0 0.0 0.00 0.00 0.00 93 1000.2
20260902212527 54 198 0.0 0.0 0.00 0.00 0.00 92 1000.3
20260902212032 54 142 0.0 0.0 0.00 0.00 0.00 92 1000.3
20260902211551 54 158 0.0 0.0 0.00 0.00 0.00 92 1000.3
20260902211036 55 84 0.0 0.0 0.00 0.00 0.00 92 1000.3
20260902210520 55 137 0.0 0.0 0.00 0.00 0.00 92 1000.3
20260902210058 55 137 0.0 0.0 0.00 0.00 0.00 92 1000.3
20260902205543 55 125 0.0 0.0 0.00 0.00 0.00 92 1000.4
20260902205045 55 106 0.0 0.0 0.00 0.00 0.00 92 1000.4
20260902204537 55 137 0.0 0.0 0.00 0.00 0.00 92 1000.4
20260902204039 55 101 0.0 0.0 0.00 0.00 0.00 92 1000.5
20260902203530 55 185 0.0 0.0 0.00 0.00 0.00 92 1000.5
20260902203047 55 185 0.0 0.0 0.00 0.00 0.00 92 1000.5
20260902202530 55 211 0.0 0.0 0.00 0.00 0.00 92 1000.5
20260902202031 55 164 0.0 0.0 0.00 0.00 0.00 92 1000.5
20260902201546 55 191 0.0 0.0 0.00 0.00 0.00 92 1000.5
20260902201029 55 158 0.0 0.0 0.00 0.00 0.00 92 1000.7
20260902200534 55 161 0.0 0.0 0.00 0.00 0.00 92 1000.7
20260902200022 55 214 0.0 0.0 0.00 0.00 0.00 93 1000.7
20260902195600 55 273 0.0 0.0 0.00 0.00 0.00 93 1000.8
20260902195058 55 246 0.0 0.0 0.00 0.00 0.00 93 1000.8
20260902194524 55 81 0.0 0.0 0.00 0.00 0.00 93 1000.8
20260902194039 55 208 0.0 0.0 0.00 0.00 0.00 93 1000.8
20260902193544 55 190 0.0 0.0 0.00 0.00 0.00 93 1000.8
20260902193031 54 125 0.0 0.0 0.00 0.00 0.00 92 1000.8
20260902192535 54 253 0.0 0.0 0.00 0.00 0.00 92 1000.9
20260902192034 54 236 0.0 0.0 0.00 0.00 0.00 91 1000.9
20260902191534 54 144 0.0 0.0 0.00 0.00 0.00 89 1000.9
20260902191028 55 201 0.0 0.0 0.00 0.00 0.00 88 1000.9
20260902190541 55 211 0.0 0.0 0.00 0.00 0.00 87 1000.9
20260902190023 55 211 0.0 0.0 0.00 0.00 0.00 87 1000.8
20260902185603 55 211 0.0 0.0 0.00 0.00 0.00 87 1000.8
20260902185027 56 211 0.0 0.0 0.00 0.00 0.00 86 1000.8
20260902184533 56 211 0.0 0.0 0.00 0.00 0.00 86 1000.8
20260902184051 56 211 0.0 0.0 0.00 0.00 0.00 87 1000.8
20260902183530 57 211 0.0 0.0 0.00 0.00 0.00 86 1000.8
20260902183035 57 211 0.0 0.0 0.00 0.00 0.00 86 1000.8
20260902182546 57 211 0.0 0.0 0.00 0.00 0.00 86 1000.9
20260902182027 57 216 0.0 0.0 0.00 0.00 0.00 85 1000.9
20260902181542 58 195 0.0 0.0 0.00 0.00 0.00 85 1000.9
20260902181028 58 199 0.0 0.0 0.00 0.00 0.00 84 1001.0
20260902180559 58 192 0.0 0.0 0.00 0.00 0.00 84 1001.0
20260902180019 59 243 0.0 0.0 0.00 0.00 0.00 83 1001.0
20260902175541 59 216 1.0 0.0 0.00 0.00 0.00 83 1001.0
20260902175023 59 226 1.0 0.0 0.00 0.00 0.00 82 1001.0
20260902174536 59 221 1.0 0.0 0.00 0.00 0.00 82 1001.0
20260902174022 60 209 1.0 0.0 0.00 0.00 0.00 81 1001.0
20260902173530 60 273 2.0 0.0 0.00 0.00 0.00 81 1001.0
20260902173028 61 287 2.0 0.0 0.00 0.00 0.00 81 1001.0
20260902172556 61 198 1.0 0.0 0.00 0.00 0.00 81 1000.8
20260902172043 61 208 1.0 0.0 0.00 0.00 0.00 80 1000.8
20260902171529 61 214 2.0 0.0 0.00 0.00 0.00 80 1000.8
20260902171038 62 211 1.0 0.0 0.00 0.00 0.00 79 1000.8
20260902170520 62 211 0.0 0.0 0.00 0.00 0.00 79 1000.8
20260902170022 62 235 0.0 0.0 0.00 0.00 0.00 78 1000.8
20260902165527 62 253 0.0 0.0 0.00 0.00 0.00 78 1000.7
20260902165041 63 233 0.0 0.0 0.00 0.00 0.00 78 1000.7
20260902164526 63 223 0.0 0.0 0.00 0.00 0.00 77 1000.7
20260902164031 63 212 0.0 0.0 0.00 0.00 0.00 77 1000.7
20260902163524 64 160 0.0 0.0 0.00 0.00 0.00 76 1000.7
20260902163024 64 157 0.0 0.0 0.00 0.00 0.00 75 1000.7
20260902162538 64 256 0.0 0.0 0.00 0.00 0.00 75 1000.7
20260902162023 64 247 0.0 0.0 0.00 0.00 0.00 76 1000.7
20260902161535 65 230 0.0 0.0 0.00 0.00 0.00 75 1000.7
20260902161045 65 230 0.0 0.0 0.00 0.00 0.00 73 1000.7
20260902160530 66 230 0.0 0.0 0.00 0.00 0.00 73 1000.8
20260902160034 66 230 0.0 0.0 0.00 0.00 0.00 72 1000.8
20260902155542 66 230 0.0 0.0 0.00 0.00 0.00 71 1000.7
20260902155025 66 230 0.0 0.0 0.00 0.00 0.00 70 1000.7
20260902154530 66 256 0.0 0.0 0.00 0.00 0.00 71 1000.7
20260902154027 67 222 0.0 0.0 0.00 0.00 0.00 71 1000.8
20260902153543 67 204 0.0 0.0 0.00 0.00 0.00 71 1000.8
20260902153027 67 257 0.0 0.0 0.00 0.00 0.00 71 1000.8
20260902152559 67 257 0.0 0.0 0.00 0.00 0.00 69 1000.9
20260902152029 67 262 0.0 0.0 0.00 0.00 0.00 68 1000.9
20260902151532 67 218 0.0 0.0 0.00 0.00 0.00 67 1000.9
20260902151043 67 185 0.0 0.0 0.00 0.00 0.00 69 1000.9
20260902150530 67 249 0.0 0.0 0.00 0.00 0.00 69 1000.9
20260902150034 67 260 0.0 0.0 0.00 0.00 0.00 67 1000.9
20260902145526 67 239 0.0 0.0 0.00 0.00 0.00 66 1001.1
20260902145029 67 215 0.0 0.0 0.00 0.00 0.00 70 1001.1
20260902144541 67 218 0.0 0.0 0.00 0.00 0.00 66 1001.1
20260902144022 68 218 0.0 0.0 0.00 0.00 0.00 66 1001.1
20260902143528 68 226 0.0 0.0 0.00 0.00 0.00 63 1001.1
20260902143043 68 286 0.0 0.0 0.00 0.00 0.00 64 1001.1
20260902142525 68 286 0.0 0.0 0.00 0.00 0.00 61 1001.2
20260902142031 69 181 0.0 0.0 0.00 0.00 0.00 62 1001.2
20260902141542 69 221 0.0 0.0 0.00 0.00 0.00 60 1001.2
20260902141030 69 267 0.0 0.0 0.00 0.00 0.00 61 1001.3
20260902140533 70 273 0.0 0.0 0.00 0.00 0.00 57 1001.3
20260902140036 70 223 0.0 0.0 0.00 0.00 0.00 58 1001.3
20260902135548 71 197 0.0 0.0 0.00 0.00 0.00 57 1001.3
20260902135035 71 222 0.0 0.0 0.00 0.00 0.00 58 1001.4
20260902134546 71 254 0.0 0.0 0.00 0.00 0.00 54 1001.4
20260902134022 71 304 0.0 0.0 0.00 0.00 0.00 55 1001.5
20260902133527 71 219 0.0 0.0 0.00 0.00 0.00 54 1001.5
20260902133043 71 202 0.0 0.0 0.00 0.00 0.00 54 1001.5
20260902132526 71 287 0.0 0.0 0.00 0.00 0.00 54 1001.7
20260902132034 71 216 0.0 0.0 0.00 0.00 0.00 57 1001.7
20260902131546 71 218 1.0 0.0 0.00 0.00 0.00 54 1001.7
20260902131057 72 166 0.0 0.0 0.00 0.00 0.00 55 1001.7
20260902130523 72 215 0.0 0.0 0.00 0.00 0.00 57 1001.7
20260902130034 72 312 0.0 0.0 0.00 0.00 0.00 56 1001.7
20260902125534 72 280 0.0 0.0 0.00 0.00 0.00 55 1001.7
20260902125024 72 349 0.0 0.0 0.00 0.00 0.00 52 1001.7
20260902124522 72 16 0.0 0.0 0.00 0.00 0.00 54 1001.7
20260902124054 72 288 0.0 0.0 0.00 0.00 0.00 55 1001.8
20260902123539 72 317 1.0 0.0 0.00 0.00 0.00 56 1001.8
20260902123052 71 264 0.0 0.0 0.00 0.00 0.00 54 1001.8
20260902122535 71 201 0.0 0.0 0.00 0.00 0.00 57 1001.9
20260902122047 71 257 1.0 0.0 0.00 0.00 0.00 57 1001.9
20260902121529 71 109 0.0 0.0 0.00 0.00 0.00 55 1001.9
20260902121032 71 301 0.0 0.0 0.00 0.00 0.00 58 1001.9
20260902120551 71 247 0.0 0.0 0.00 0.00 0.00 61 1001.9
20260902120027 71 153 0.0 0.0 0.00 0.00 0.00 55 1001.9
20260902115528 71 190 0.0 0.0 0.00 0.00 0.00 54 1002.0
20260902115047 71 211 0.0 0.0 0.00 0.00 0.00 55 1002.0
20260902114529 72 238 0.0 0.0 0.00 0.00 0.00 53 1002.0
20260902114039 72 254 0.0 0.0 0.00 0.00 0.00 54 1002.2
20260902113525 72 253 0.0 0.0 0.00 0.00 0.00 54 1002.2
20260902113030 72 325 0.0 0.0 0.00 0.00 0.00 54 1002.2
20260902112531 72 276 0.0 0.0 0.00 0.00 0.00 52 1002.3
20260902112037 71 341 0.0 0.0 0.00 0.00 0.00 55 1002.3
20260902111521 71 214 0.0 0.0 0.00 0.00 0.00 55 1002.3
20260902111037 72 304 0.0 0.0 0.00 0.00 0.00 51 1002.3
20260902110550 71 308 0.0 0.0 0.00 0.00 0.00 54 1002.3
20260902110025 71 218 0.0 0.0 0.00 0.00 0.00 54 1002.3
20260902105526 71 287 0.0 0.0 0.00 0.00 0.00 57 1002.3